User: anonymous   Login
Location: Le Castellard
(44.1862°N, 6.1301°E)
Time: 16:50:21
(UTC+00:00)
Language:

STARLINK-54 - Orbit

View from above orbital plane
View from above orbital plane
View from above satellite
View from above satellite

Ground track
Ground track

The orbit data is extracted from the following two-line orbital elements,

1 44266C 19029AH  20100.52064067 -.00004140  00000-0 -23690-3 0  1004
2 44266  52.9923 162.4905 0000747  99.9522 139.4810 15.12151823    11
Epoch (UTC): 09 April 2020 12:29:43
Eccentricity: 0.0000747
inclination: 52.9923°
perigee height: 529 km
apogee height: 530 km
right ascension of ascending node: 162.4905°
argument of perigee: 99.9522°
revolutions per day: 15.12151823
mean anomaly at epoch: 139.4810°
orbit number at epoch: 1

The dashed part of the orbit path shows where the satellite is in the earth's shadow,  

DLR